Location: *
(57.8420°S, 159.8600°W)
Time: 05:23:56
(UTC+00:00)

Meteor 1-27 Rocket - Pass Details

Date: 18 May 2021
Orbit: 829 x 910 km, 81.3° (Epoch: 20 June)

Event Time Altitude Azimuth Distance (km) Brightness Sun altitude
Rises 05:17:13 0° 195° (SSW) 3,423 7.0 -22.0°
Reaches altitude 10° 05:19:48 10° 187° (S) 2,488 6.2 -22.3°
Enters shadow 05:24:11 38° 141° (SE) 1,297 4.3 -22.9°
